When you browse on this site, cookies collect data to enhance your experience and personalize the content and advertising you see.
Visit our Privacy Policy to learn more. By continuing to use the site, you agree to this use of cookies and data.
  • In Hungary
  • List of Countries
  • For 7 days
  • Water Temperature
  • Satellite Maps
  • Weather Map
  • News
  • Weather Widgets
  • user-avatar
    Login

    Hourly Weather Kildigulovo

    Today, 16 November, Friday

    Time Temperature Precipitation Wind Pressure Humidity
    00:00 -7°C° 0 mm 1 mps 733 mmHg 47%
    01:00 -7°C° 0 mm 1 mps 734 mmHg 46%
    02:00 -7°C° 0 mm 1 mps 734 mmHg 46%
    03:00 -7°C° 0 mm 1 mps 734 mmHg 45%
    04:00 -7°C° 0 mm 1 mps 734 mmHg 45%
    05:00 -8°C° 0 mm 1 mps 734 mmHg 45%
    06:00 -8°C° 0 mm 1 mps 734 mmHg 45%
    07:00 -8°C° 0 mm 1 mps 734 mmHg 45%
    08:00 -7°C° 0 mm 1 mps 734 mmHg 44%
    09:00 -4°C° 0 mm 1 mps 734 mmHg 43%
    10:00 -4°C° 0 mm 0 mps 735 mmHg 41%
    11:00 -2°C° 0 mm 1 mps 735 mmHg 42%
    12:00 -1°C° 0 mm 1 mps 735 mmHg 43%
    13:00 0°C° 0 mm 1 mps 734 mmHg 44%
    14:00 -1°C° 0 mm 1 mps 734 mmHg 50%
    15:00 -2°C° 0 mm 1 mps 734 mmHg 57%
    16:00 -4°C° 0 mm 0 mps 733 mmHg 71%
    17:00 -4°C° 0 mm 1 mps 733 mmHg 75%
    18:00 -4°C° 0 mm 1 mps 733 mmHg 79%
    19:00 -4°C° 0 mm 1 mps 733 mmHg 83%
    20:00 -4°C° 0 mm 1 mps 732 mmHg 85%
    21:00 -6°C° 0 mm 1 mps 732 mmHg 87%
    22:00 -6°C° 0 mm 1 mps 732 mmHg 89%
    23:00 -6°C° 0 mm 1 mps 731 mmHg 90%

    Tomorrow, 17 November, Saturday

    Time Temperature Precipitation Wind Pressure Humidity
    00:00 -6°C° 0 mm 1 mps 731 mmHg 90%
    01:00 -6°C° 0 mm 1 mps 730 mmHg 91%
    02:00 -7°C° 0 mm 2 mps 729 mmHg 89%
    03:00 -7°C° 0 mm 2 mps 729 mmHg 86%
    04:00 -7°C° 0 mm 2 mps 728 mmHg 83%
    05:00 -7°C° 0 mm 3 mps 728 mmHg 74%
    06:00 -7°C° 0 mm 3 mps 727 mmHg 64%
    07:00 -7°C° 0 mm 3 mps 727 mmHg 55%
    08:00 -8°C° 0 mm 4 mps 726 mmHg 51%
    09:00 -7°C° 0 mm 4 mps 726 mmHg 48%
    10:00 -5°C° 0 mm 4 mps 726 mmHg 44%
    11:00 -5°C° 0 mm 4 mps 725 mmHg 48%
    12:00 -5°C° 0 mm 4 mps 725 mmHg 52%
    13:00 -4°C° 0 mm 4 mps 724 mmHg 56%
    14:00 -5°C° 0 mm 3 mps 724 mmHg 61%
    15:00 -6°C° 0 mm 3 mps 724 mmHg 66%
    16:00 -5°C° 0 mm 2 mps 723 mmHg 71%
    17:00 -6°C° 0 mm 2 mps 723 mmHg 73%
    18:00 -6°C° 0 mm 2 mps 723 mmHg 75%
    19:00 -6°C° 0 mm 2 mps 723 mmHg 78%
    20:00 -6°C° 0 mm 2 mps 722 mmHg 80%
    21:00 -6°C° 0 mm 2 mps 722 mmHg 81%
    22:00 -6°C° 0 mm 2 mps 722 mmHg 83%
    23:00 -6°C° 0 mm 2 mps 721 mmHg 84%

    Day after tomorrow, 18 November, Sunday

    Time Temperature Precipitation Wind Pressure Humidity
    00:00 -6°C° 0 mm 2 mps 721 mmHg 85%
    01:00 -5°C° 0 mm 2 mps 721 mmHg 86%
    02:00 -5°C° 0.1 mm 2 mps 721 mmHg 87%
    03:00 -5°C° 0.1 mm 2 mps 721 mmHg 87%
    04:00 -5°C° 0.1 mm 2 mps 721 mmHg 88%
    05:00 -5°C° 0 mm 2 mps 720 mmHg 86%
    06:00 -6°C° 0 mm 2 mps 720 mmHg 85%
    07:00 -6°C° 0 mm 2 mps 720 mmHg 83%
    08:00 -5°C° 0 mm 2 mps 720 mmHg 78%
    09:00 -5°C° 0 mm 2 mps 720 mmHg 73%
    10:00 -4°C° 0 mm 2 mps 720 mmHg 69%
    11:00 -3°C° 0 mm 2 mps 720 mmHg 65%
    12:00 -2°C° 0 mm 2 mps 720 mmHg 62%
    13:00 -2°C° 0 mm 2 mps 720 mmHg 59%
    14:00 -2°C° 0 mm 2 mps 721 mmHg 61%
    15:00 -3°C° 0 mm 2 mps 721 mmHg 64%
    16:00 -4°C° 0 mm 2 mps 721 mmHg 66%
    17:00 -4°C° 0 mm 2 mps 721 mmHg 66%
    18:00 -4°C° 0 mm 2 mps 721 mmHg 67%
    19:00 -5°C° 0 mm 2 mps 721 mmHg 67%
    20:00 -3°C° 0 mm 1 mps 721 mmHg 66%
    21:00 -3°C° 0 mm 1 mps 721 mmHg 65%
    22:00 -4°C° 0 mm 1 mps 721 mmHg 64%
    23:00 -4°C° 0 mm 1 mps 722 mmHg 62%

    19 November, Monday

    Time Temperature Precipitation Wind Pressure Humidity
    00:00 -4°C° 0 mm 1 mps 722 mmHg 61%
    01:00 -4°C° 0 mm 1 mps 722 mmHg 60%
    02:00 -4°C° 0 mm 1 mps 722 mmHg 59%
    03:00 -4°C° 0 mm 1 mps 722 mmHg 59%
    04:00 -6°C° 0 mm 1 mps 722 mmHg 59%
    05:00 -6°C° 0 mm 1 mps 723 mmHg 59%
    06:00 -6°C° 0 mm 1 mps 723 mmHg 59%
    07:00 -6°C° 0 mm 1 mps 723 mmHg 60%
    08:00 -4°C° 0 mm 1 mps 723 mmHg 57%
    09:00 -3°C° 0 mm 1 mps 724 mmHg 54%
    10:00 -2°C° 0 mm 1 mps 724 mmHg 51%
    11:00 -1°C° 0 mm 1 mps 724 mmHg 50%
    12:00 0°C° 0 mm 1 mps 725 mmHg 49%
    13:00 +1°C° 0 mm 1 mps 725 mmHg 48%
    14:00 0°C° 0 mm 1 mps 725 mmHg 54%
    15:00 -1°C° 0 mm 1 mps 725 mmHg 59%
    16:00 -3°C° 0 mm 1 mps 725 mmHg 64%
    17:00 -3°C° 0 mm 1 mps 725 mmHg 67%
    18:00 -3°C° 0 mm 1 mps 725 mmHg 70%
    19:00 -4°C° 0 mm 1 mps 725 mmHg 73%
    20:00 -4°C° 0 mm 1 mps 725 mmHg 75%
    21:00 -4°C° 0 mm 1 mps 725 mmHg 77%
    22:00 -6°C° 0 mm 1 mps 725 mmHg 79%
    23:00 -6°C° 0 mm 1 mps 726 mmHg 81%

    20 November, Tuesday

    Time Temperature Precipitation Wind Pressure Humidity
    00:00 -6°C° 0 mm 1 mps 726 mmHg 83%
    01:00 -6°C° 0 mm 1 mps 726 mmHg 84%
    02:00 -6°C° 0 mm 1 mps 726 mmHg 86%
    03:00 -6°C° 0 mm 1 mps 726 mmHg 88%
    04:00 -6°C° 0 mm 1 mps 726 mmHg 90%
    05:00 -6°C° 0 mm 1 mps 726 mmHg 90%
    06:00 -6°C° 0 mm 1 mps 726 mmHg 91%
    07:00 -7°C° 0 mm 1 mps 726 mmHg 92%
    08:00 -6°C° 0 mm 1 mps 726 mmHg 90%
    09:00 -4°C° 0 mm 1 mps 726 mmHg 88%
    10:00 -3°C° 0 mm 1 mps 726 mmHg 86%
    11:00 -4°C° 0 mm 2 mps 726 mmHg 83%
    12:00 -3°C° 0 mm 2 mps 726 mmHg 80%
    13:00 -2°C° 0 mm 2 mps 726 mmHg 77%
    14:00 -3°C° 0 mm 2 mps 726 mmHg 81%
    15:00 -4°C° 0 mm 2 mps 725 mmHg 85%
    16:00 -4°C° 0 mm 2 mps 725 mmHg 88%
    17:00 -4°C° 0 mm 2 mps 725 mmHg 90%
    18:00 -5°C° 0 mm 2 mps 725 mmHg 91%
    19:00 -5°C° 0 mm 2 mps 725 mmHg 92%
    20:00 -5°C° 0 mm 2 mps 725 mmHg 92%
    21:00 -5°C° 0 mm 2 mps 725 mmHg 91%
    22:00 -5°C° 0 mm 2 mps 725 mmHg 91%
    23:00 -5°C° 0 mm 2 mps 725 mmHg 92%

    21 November, Wednesday

    Time Temperature Precipitation Wind Pressure Humidity
    00:00 -5°C° 0 mm 2 mps 725 mmHg 93%
    01:00 -6°C° 0 mm 2 mps 725 mmHg 95%
    02:00 -6°C° 0 mm 2 mps 724 mmHg 94%
    03:00 -6°C° 0 mm 2 mps 724 mmHg 93%
    04:00 -6°C° 0 mm 2 mps 724 mmHg 92%
    05:00 -6°C° 0 mm 2 mps 724 mmHg 91%
    06:00 -7°C° 0 mm 3 mps 724 mmHg 90%
    07:00 -7°C° 0 mm 3 mps 723 mmHg 90%
    08:00 -6°C° 0 mm 3 mps 723 mmHg 88%
    09:00 -6°C° 0 mm 3 mps 723 mmHg 86%
    10:00 -5°C° 0 mm 4 mps 723 mmHg 85%
    11:00 -5°C° 0 mm 4 mps 723 mmHg 83%
    12:00 -5°C° 0 mm 4 mps 722 mmHg 81%
    13:00 -4°C° 0 mm 4 mps 722 mmHg 79%
    14:00 -5°C° 0 mm 4 mps 722 mmHg 81%
    15:00 -5°C° 0 mm 4 mps 721 mmHg 83%
    16:00 -5°C° 0 mm 4 mps 721 mmHg 85%
    17:00 -7°C° 0 mm 4 mps 721 mmHg 85%
    18:00 -7°C° 0 mm 4 mps 720 mmHg 86%
    19:00 -6°C° 0 mm 3 mps 720 mmHg 87%
    20:00 -6°C° 0 mm 3 mps 720 mmHg 88%
    21:00 -7°C° 0 mm 3 mps 719 mmHg 89%
    22:00 -7°C° 0 mm 3 mps 719 mmHg 90%
    23:00 -7°C° 0 mm 3 mps 719 mmHg 90%
    Show more